User: anonymous   Login
Location: Muenchen
(48.1800°N, 11.5800°E)
Time: 17:10:43
(UTC+02:00)
Language:

Tiros 1 - Orbit

View from above orbital plane
View from above orbital plane
View from above satellite
View from above satellite

Ground track
Ground track

The orbit data is extracted from the following two-line orbital elements,

1 00029U 60002B   18262.53008440 -.00000141  00000-0  10069-4 0  9999
2 00029  48.3796  74.2450 0023865  26.9710 333.2437 14.74264034124671
Epoch (UTC): 19 September 2018 12:43:19
Eccentricity: 0.0023865
inclination: 48.3796°
perigee height: 631 km
apogee height: 664 km
right ascension of ascending node: 74.2450°
argument of perigee: 26.9710°
revolutions per day: 14.74264034
mean anomaly at epoch: 333.2437°
orbit number at epoch: 12467

The dashed part of the orbit path shows where the satellite is in the earth's shadow,  

DLR